owner,sensor,date,latitude,longitude,relative_humidity,qcFlag 
DISL,ioos:station:DISL:KATA:1,2019-09-01T00:56:00Z,30.2583,-88.2131,72.36,11111222 
DISL,ioos:station:DISL:KATA:1,2019-09-01T01:56:00Z,30.2583,-88.2131,72.26,11111222 
DISL,ioos:station:DISL:KATA:1,2019-09-01T02:56:00Z,30.2583,-88.2131,70.84,11111222 
DISL,ioos:station:DISL:KATA:1,2019-09-01T03:56:00Z,30.2583,-88.2131,73.62,11111222 
DISL,ioos:station:DISL:KATA:1,2019-09-01T04:56:00Z,30.2583,-88.2131,83.7,11111222 
DISL,ioos:station:DISL:KATA:1,2019-09-01T05:56:00Z,30.2583,-88.2131,77.86,11111222 
DISL,ioos:station:DISL:KATA:1,2019-09-01T06:56:00Z,30.2583,-88.2131,77.45,11111222 
DISL,ioos:station:DISL:KATA:1,2019-09-01T07:56:00Z,30.2583,-88.2131,75.11,11111222 
DISL,ioos:station:DISL:KATA:1,2019-09-01T08:56:00Z,30.2583,-88.2131,78.67,11111222 
DISL,ioos:station:DISL:KATA:1,2019-09-01T09:56:00Z,30.2583,-88.2131,82.4,11111222 
DISL,ioos:station:DISL:KATA:1,2019-09-01T10:56:00Z,30.2583,-88.2131,84.7,11111222 
DISL,ioos:station:DISL:KATA:1,2019-09-01T11:56:00Z,30.2583,-88.2131,84.7,11111222 
DISL,ioos:station:DISL:KATA:1,2019-09-01T12:56:00Z,30.2583,-88.2131,85.0,11111222 
DISL,ioos:station:DISL:KATA:1,2019-09-01T13:56:00Z,30.2583,-88.2131,86.9,11111222 
DISL,ioos:station:DISL:KATA:1,2019-09-01T14:56:00Z,30.2583,-88.2131,82.3,11111222 
DISL,ioos:station:DISL:KATA:1,2019-09-01T15:56:00Z,30.2583,-88.2131,79.89,11111222 
DISL,ioos:station:DISL:KATA:1,2019-09-01T16:56:00Z,30.2583,-88.2131,77.04,11111222 
DISL,ioos:station:DISL:KATA:1,2019-09-01T17:56:00Z,30.2583,-88.2131,73.14,11111222 
DISL,ioos:station:DISL:KATA:1,2019-09-01T18:56:00Z,30.2583,-88.2131,71.92,11111222 
DISL,ioos:station:DISL:KATA:1,2019-09-01T19:56:00Z,30.2583,-88.2131,70.94,11111222 
DISL,ioos:station:DISL:KATA:1,2019-09-01T20:56:00Z,30.2583,-88.2131,69.07,11111222 
DISL,ioos:station:DISL:KATA:1,2019-09-01T21:56:00Z,30.2583,-88.2131,69.95,11111222 
DISL,ioos:station:DISL:KATA:1,2019-09-01T22:56:00Z,30.2583,-88.2131,70.46,11111222 
DISL,ioos:station:DISL:KATA:1,2019-09-01T23:56:00Z,30.2583,-88.2131,67.41,11111222 
DISL,ioos:station:DISL:KATA:1,2019-09-02T00:56:00Z,30.2583,-88.2131,66.73,11111222 
DISL,ioos:station:DISL:KATA:1,2019-09-02T01:56:00Z,30.2583,-88.2131,69.45,11111222 
DISL,ioos:station:DISL:KATA:1,2019-09-02T02:56:00Z,30.2583,-88.2131,71.01,11111222 
DISL,ioos:station:DISL:KATA:1,2019-09-02T03:56:00Z,30.2583,-88.2131,65.11,11111222 
DISL,ioos:station:DISL:KATA:1,2019-09-02T04:56:00Z,30.2583,-88.2131,69.11,11111222 
DISL,ioos:station:DISL:KATA:1,2019-09-02T05:56:00Z,30.2583,-88.2131,71.24,11111222 
DISL,ioos:station:DISL:KATA:1,2019-09-02T06:56:00Z,30.2583,-88.2131,73.31,11111222 
DISL,ioos:station:DISL:KATA:1,2019-09-02T07:56:00Z,30.2583,-88.2131,70.84,11111222 
DISL,ioos:station:DISL:KATA:1,2019-09-02T08:56:00Z,30.2583,-88.2131,72.53,11111222 
DISL,ioos:station:DISL:KATA:1,2019-09-02T09:56:00Z,30.2583,-88.2131,71.35,11111222 
DISL,ioos:station:DISL:KATA:1,2019-09-02T10:56:00Z,30.2583,-88.2131,72.67,11111222 
DISL,ioos:station:DISL:KATA:1,2019-09-02T11:56:00Z,30.2583,-88.2131,75.08,11111222 
DISL,ioos:station:DISL:KATA:1,2019-09-02T12:56:00Z,30.2583,-88.2131,77.32,11111222 
DISL,ioos:station:DISL:KATA:1,2019-09-02T15:56:00Z,30.2583,-88.2131,74.64,11111222 
DISL,ioos:station:DISL:KATA:1,2019-09-02T16:56:00Z,30.2583,-88.2131,72.06,11111222 
DISL,ioos:station:DISL:KATA:1,2019-09-02T17:56:00Z,30.2583,-88.2131,66.35,11111222 
DISL,ioos:station:DISL:KATA:1,2019-09-02T18:56:00Z,30.2583,-88.2131,56.88,11111222 
DISL,ioos:station:DISL:KATA:1,2019-09-02T19:56:00Z,30.2583,-88.2131,53.39,11111222 
DISL,ioos:station:DISL:KATA:1,2019-09-02T20:56:00Z,30.2583,-88.2131,49.46,11111222 
DISL,ioos:station:DISL:KATA:1,2019-09-02T21:56:00Z,30.2583,-88.2131,60.34,11111222 
DISL,ioos:station:DISL:KATA:1,2019-09-02T22:56:00Z,30.2583,-88.2131,65.39,11111222 
DISL,ioos:station:DISL:KATA:1,2019-09-02T23:56:00Z,30.2583,-88.2131,55.63,11111222 
DISL,ioos:station:DISL:KATA:1,2019-09-03T00:56:00Z,30.2583,-88.2131,58.15,11111222 
DISL,ioos:station:DISL:KATA:1,2019-09-03T01:56:00Z,30.2583,-88.2131,56.79,11111222 
DISL,ioos:station:DISL:KATA:1,2019-09-03T02:56:00Z,30.2583,-88.2131,60.89,11111222 
DISL,ioos:station:DISL:KATA:1,2019-09-03T03:57:00Z,30.2583,-88.2131,63.44,11111222 
DISL,ioos:station:DISL:KATA:1,2019-09-03T04:57:00Z,30.2583,-88.2131,61.89,11111222 
DISL,ioos:station:DISL:KATA:1,2019-09-03T05:57:00Z,30.2583,-88.2131,64.43,11111222 
DISL,ioos:station:DISL:KATA:1,2019-09-03T06:57:00Z,30.2583,-88.2131,59.65,11111222 
DISL,ioos:station:DISL:KATA:1,2019-09-03T07:57:00Z,30.2583,-88.2131,59.68,11111222 
DISL,ioos:station:DISL:KATA:1,2019-09-03T08:57:00Z,30.2583,-88.2131,61.58,11111222 
DISL,ioos:station:DISL:KATA:1,2019-09-03T09:57:00Z,30.2583,-88.2131,64.33,11111222 
DISL,ioos:station:DISL:KATA:1,2019-09-03T10:57:00Z,30.2583,-88.2131,65.17,11111222 
DISL,ioos:station:DISL:KATA:1,2019-09-03T11:57:00Z,30.2583,-88.2131,65.45,11111222 
DISL,ioos:station:DISL:KATA:1,2019-09-03T12:57:00Z,30.2583,-88.2131,66.29,11111222 
DISL,ioos:station:DISL:KATA:1,2019-09-03T13:57:00Z,30.2583,-88.2131,62.36,11111222 
DISL,ioos:station:DISL:KATA:1,2019-09-03T14:57:00Z,30.2583,-88.2131,61.37,11111222 
DISL,ioos:station:DISL:KATA:1,2019-09-03T15:57:00Z,30.2583,-88.2131,61.8,11111222 
DISL,ioos:station:DISL:KATA:1,2019-09-03T16:57:00Z,30.2583,-88.2131,59.66,11111222 
DISL,ioos:station:DISL:KATA:1,2019-09-03T17:57:00Z,30.2583,-88.2131,52.41,11111222 
DISL,ioos:station:DISL:KATA:1,2019-09-03T18:57:00Z,30.2583,-88.2131,50.85,11111222 
DISL,ioos:station:DISL:KATA:1,2019-09-03T19:57:00Z,30.2583,-88.2131,46.47,11111222 
DISL,ioos:station:DISL:KATA:1,2019-09-03T20:57:00Z,30.2583,-88.2131,46.31,11111222 
DISL,ioos:station:DISL:KATA:1,2019-09-03T21:57:00Z,30.2583,-88.2131,43.25,11111222 
DISL,ioos:station:DISL:KATA:1,2019-09-03T22:57:00Z,30.2583,-88.2131,40.95,11111222 
DISL,ioos:station:DISL:KATA:1,2019-09-03T23:57:00Z,30.2583,-88.2131,44.92,11111222 
DISL,ioos:station:DISL:KATA:1,2019-09-04T00:57:00Z,30.2583,-88.2131,53.36,11111222 
DISL,ioos:station:DISL:KATA:1,2019-09-04T01:57:00Z,30.2583,-88.2131,58.72,11111222 
DISL,ioos:station:DISL:KATA:1,2019-09-04T02:57:00Z,30.2583,-88.2131,52.38,11111222 
DISL,ioos:station:DISL:KATA:1,2019-09-04T03:57:00Z,30.2583,-88.2131,56.63,11111222 
DISL,ioos:station:DISL:KATA:1,2019-09-04T04:57:00Z,30.2583,-88.2131,61.58,11111222 
DISL,ioos:station:DISL:KATA:1,2019-09-04T05:57:00Z,30.2583,-88.2131,63.24,11111222 
DISL,ioos:station:DISL:KATA:1,2019-09-04T06:57:00Z,30.2583,-88.2131,64.6,11111222 
DISL,ioos:station:DISL:KATA:1,2019-09-04T07:57:00Z,30.2583,-88.2131,63.95,11111222 
DISL,ioos:station:DISL:KATA:1,2019-09-04T08:57:00Z,30.2583,-88.2131,62.39,11111222 
DISL,ioos:station:DISL:KATA:1,2019-09-04T09:57:00Z,30.2583,-88.2131,62.29,11111222 
DISL,ioos:station:DISL:KATA:1,2019-09-04T10:57:00Z,30.2583,-88.2131,62.63,11111222 
DISL,ioos:station:DISL:KATA:1,2019-09-04T11:57:00Z,30.2583,-88.2131,63.04,11111222 
DISL,ioos:station:DISL:KATA:1,2019-09-04T12:57:00Z,30.2583,-88.2131,65.11,11111222 
DISL,ioos:station:DISL:KATA:1,2019-09-04T13:57:00Z,30.2583,-88.2131,66.87,11111222 
DISL,ioos:station:DISL:KATA:1,2019-09-04T14:57:00Z,30.2583,-88.2131,63.63,11111222 
DISL,ioos:station:DISL:KATA:1,2019-09-04T15:57:00Z,30.2583,-88.2131,60.61,11111222 
DISL,ioos:station:DISL:KATA:1,2019-09-04T16:57:00Z,30.2583,-88.2131,51.02,11111222 
DISL,ioos:station:DISL:KATA:1,2019-09-04T17:57:00Z,30.2583,-88.2131,43.83,11111222 
DISL,ioos:station:DISL:KATA:1,2019-09-04T18:57:00Z,30.2583,-88.2131,39.24,11111222 
DISL,ioos:station:DISL:KATA:1,2019-09-04T19:57:00Z,30.2583,-88.2131,47.22,11111222 
DISL,ioos:station:DISL:KATA:1,2019-09-04T20:57:00Z,30.2583,-88.2131,54.58,11111222 
DISL,ioos:station:DISL:KATA:1,2019-09-04T21:57:00Z,30.2583,-88.2131,53.66,11111222 
DISL,ioos:station:DISL:KATA:1,2019-09-04T22:57:00Z,30.2583,-88.2131,52.31,11111222 
DISL,ioos:station:DISL:KATA:1,2019-09-04T23:57:00Z,30.2583,-88.2131,57.15,11111222 
DISL,ioos:station:DISL:KATA:1,2019-09-05T00:57:00Z,30.2583,-88.2131,60.68,11111222 
DISL,ioos:station:DISL:KATA:1,2019-09-05T01:57:00Z,30.2583,-88.2131,65.06,11111222 
DISL,ioos:station:DISL:KATA:1,2019-09-05T02:57:00Z,30.2583,-88.2131,68.86,11111222 
DISL,ioos:station:DISL:KATA:1,2019-09-05T03:57:00Z,30.2583,-88.2131,53.23,11111222 
DISL,ioos:station:DISL:KATA:1,2019-09-05T04:57:00Z,30.2583,-88.2131,52.18,11111222 
DISL,ioos:station:DISL:KATA:1,2019-09-05T05:57:00Z,30.2583,-88.2131,59.17,11111222 
DISL,ioos:station:DISL:KATA:1,2019-09-05T06:57:00Z,30.2583,-88.2131,58.63,11111222 
DISL,ioos:station:DISL:KATA:1,2019-09-05T07:57:00Z,30.2583,-88.2131,58.43,11111222 
DISL,ioos:station:DISL:KATA:1,2019-09-05T08:57:00Z,30.2583,-88.2131,59.27,11111222 
DISL,ioos:station:DISL:KATA:1,2019-09-05T09:57:00Z,30.2583,-88.2131,58.87,11111222 
DISL,ioos:station:DISL:KATA:1,2019-09-05T10:57:00Z,30.2583,-88.2131,59.04,11111222 
DISL,ioos:station:DISL:KATA:1,2019-09-05T11:57:00Z,30.2583,-88.2131,60.87,11111222 
DISL,ioos:station:DISL:KATA:1,2019-09-05T12:57:00Z,30.2583,-88.2131,60.26,11111222 
DISL,ioos:station:DISL:KATA:1,2019-09-05T13:57:00Z,30.2583,-88.2131,61.04,11111222 
DISL,ioos:station:DISL:KATA:1,2019-09-05T14:57:00Z,30.2583,-88.2131,60.01,11111222 
DISL,ioos:station:DISL:KATA:1,2019-09-05T15:57:00Z,30.2583,-88.2131,59.8,11111222 
DISL,ioos:station:DISL:KATA:1,2019-09-05T16:57:00Z,30.2583,-88.2131,56.98,11111222 
DISL,ioos:station:DISL:KATA:1,2019-09-05T17:57:00Z,30.2583,-88.2131,54.68,11111222 
DISL,ioos:station:DISL:KATA:1,2019-09-05T18:57:00Z,30.2583,-88.2131,59.02,11111222 
DISL,ioos:station:DISL:KATA:1,2019-09-05T19:57:00Z,30.2583,-88.2131,54.64,11111222 
DISL,ioos:station:DISL:KATA:1,2019-09-05T20:57:00Z,30.2583,-88.2131,60.98,11111222 
DISL,ioos:station:DISL:KATA:1,2019-09-05T21:57:00Z,30.2583,-88.2131,59.05,11111222 
DISL,ioos:station:DISL:KATA:1,2019-09-05T22:57:00Z,30.2583,-88.2131,62.03,11111222 
DISL,ioos:station:DISL:KATA:1,2019-09-05T23:57:00Z,30.2583,-88.2131,67.25,11111222 
DISL,ioos:station:DISL:KATA:1,2019-09-06T00:57:00Z,30.2583,-88.2131,62.07,11111222 
DISL,ioos:station:DISL:KATA:1,2019-09-06T01:57:00Z,30.2583,-88.2131,62.14,11111222 
DISL,ioos:station:DISL:KATA:1,2019-09-06T02:57:00Z,30.2583,-88.2131,60.99,11111222 
DISL,ioos:station:DISL:KATA:1,2019-09-06T03:57:00Z,30.2583,-88.2131,62.25,11111222 
DISL,ioos:station:DISL:KATA:1,2019-09-06T04:57:00Z,30.2583,-88.2131,62.89,11111222 
DISL,ioos:station:DISL:KATA:1,2019-09-06T07:57:00Z,30.2583,-88.2131,66.26,11111222 
DISL,ioos:station:DISL:KATA:1,2019-09-06T08:57:00Z,30.2583,-88.2131,66.7,11111222 
DISL,ioos:station:DISL:KATA:1,2019-09-06T09:57:00Z,30.2583,-88.2131,66.19,11111222 
DISL,ioos:station:DISL:KATA:1,2019-09-06T10:57:00Z,30.2583,-88.2131,56.6,11111222 
DISL,ioos:station:DISL:KATA:1,2019-09-06T11:57:00Z,30.2583,-88.2131,61.07,11111222 
DISL,ioos:station:DISL:KATA:1,2019-09-06T12:57:00Z,30.2583,-88.2131,55.68,11111222 
DISL,ioos:station:DISL:KATA:1,2019-09-06T13:57:00Z,30.2583,-88.2131,55.99,11111222 
DISL,ioos:station:DISL:KATA:1,2019-09-06T14:57:00Z,30.2583,-88.2131,52.97,11111222 
DISL,ioos:station:DISL:KATA:1,2019-09-06T15:57:00Z,30.2583,-88.2131,46.32,11111222 
DISL,ioos:station:DISL:KATA:1,2019-09-06T16:57:00Z,30.2583,-88.2131,43.02,11111222 
DISL,ioos:station:DISL:KATA:1,2019-09-06T17:57:00Z,30.2583,-88.2131,42.14,11111222 
DISL,ioos:station:DISL:KATA:1,2019-09-06T18:57:00Z,30.2583,-88.2131,37.29,11111222 
DISL,ioos:station:DISL:KATA:1,2019-09-06T19:57:00Z,30.2583,-88.2131,33.42,11111222 
DISL,ioos:station:DISL:KATA:1,2019-09-06T20:57:00Z,30.2583,-88.2131,32.34,11111222 
DISL,ioos:station:DISL:KATA:1,2019-09-06T21:57:00Z,30.2583,-88.2131,34.71,11111222 
DISL,ioos:station:DISL:KATA:1,2019-09-06T22:57:00Z,30.2583,-88.2131,32.54,11111222 
DISL,ioos:station:DISL:KATA:1,2019-09-06T23:57:00Z,30.2583,-88.2131,38.98,11111222 
DISL,ioos:station:DISL:KATA:1,2019-09-07T00:57:00Z,30.2583,-88.2131,44.85,11111222 
DISL,ioos:station:DISL:KATA:1,2019-09-07T01:57:00Z,30.2583,-88.2131,45.36,11111222 
DISL,ioos:station:DISL:KATA:1,2019-09-07T02:57:00Z,30.2583,-88.2131,50.21,11111222 
DISL,ioos:station:DISL:KATA:1,2019-09-07T03:57:00Z,30.2583,-88.2131,48.28,11111222 
DISL,ioos:station:DISL:KATA:1,2019-09-07T04:57:00Z,30.2583,-88.2131,48.9,11111222 
DISL,ioos:station:DISL:KATA:1,2019-09-07T05:57:00Z,30.2583,-88.2131,49.64,11111222 
DISL,ioos:station:DISL:KATA:1,2019-09-07T06:57:00Z,30.2583,-88.2131,50.9,11111222 
DISL,ioos:station:DISL:KATA:1,2019-09-07T07:57:00Z,30.2583,-88.2131,54.19,11111222 
DISL,ioos:station:DISL:KATA:1,2019-09-07T08:57:00Z,30.2583,-88.2131,53.78,11111222 
DISL,ioos:station:DISL:KATA:1,2019-09-07T09:57:00Z,30.2583,-88.2131,56.97,11111222 
DISL,ioos:station:DISL:KATA:1,2019-09-07T10:57:00Z,30.2583,-88.2131,58.83,11111222 
DISL,ioos:station:DISL:KATA:1,2019-09-07T11:57:00Z,30.2583,-88.2131,57.54,11111222 
DISL,ioos:station:DISL:KATA:1,2019-09-07T12:57:00Z,30.2583,-88.2131,58.12,11111222 
DISL,ioos:station:DISL:KATA:1,2019-09-07T13:57:00Z,30.2583,-88.2131,57.6,11111222 
DISL,ioos:station:DISL:KATA:1,2019-09-07T14:57:00Z,30.2583,-88.2131,58.24,11111222 
DISL,ioos:station:DISL:KATA:1,2019-09-07T15:57:00Z,30.2583,-88.2131,56.88,11111222 
DISL,ioos:station:DISL:KATA:1,2019-09-07T16:57:00Z,30.2583,-88.2131,54.81,11111222 
DISL,ioos:station:DISL:KATA:1,2019-09-07T17:57:00Z,30.2583,-88.2131,54.54,11111222 
DISL,ioos:station:DISL:KATA:1,2019-09-07T18:57:00Z,30.2583,-88.2131,56.92,11111222 
DISL,ioos:station:DISL:KATA:1,2019-09-07T19:57:00Z,30.2583,-88.2131,57.08,11111222 
DISL,ioos:station:DISL:KATA:1,2019-09-07T20:57:00Z,30.2583,-88.2131,54.17,11111222 
DISL,ioos:station:DISL:KATA:1,2019-09-07T21:57:00Z,30.2583,-88.2131,53.83,11111222 
DISL,ioos:station:DISL:KATA:1,2019-09-07T22:57:00Z,30.2583,-88.2131,55.76,11111222 
DISL,ioos:station:DISL:KATA:1,2019-09-07T23:57:00Z,30.2583,-88.2131,58.58,11111222 
DISL,ioos:station:DISL:KATA:1,2019-09-08T00:57:00Z,30.2583,-88.2131,61.53,11111222 
DISL,ioos:station:DISL:KATA:1,2019-09-08T01:57:00Z,30.2583,-88.2131,64.99,11111222 
DISL,ioos:station:DISL:KATA:1,2019-09-08T02:57:00Z,30.2583,-88.2131,68.35,11111222 
DISL,ioos:station:DISL:KATA:1,2019-09-08T03:57:00Z,30.2583,-88.2131,67.57,11111222 
DISL,ioos:station:DISL:KATA:1,2019-09-08T04:57:00Z,30.2583,-88.2131,69.4,11111222 
DISL,ioos:station:DISL:KATA:1,2019-09-08T05:57:00Z,30.2583,-88.2131,72.79,11111222 
DISL,ioos:station:DISL:KATA:1,2019-09-08T06:57:00Z,30.2583,-88.2131,75.41,11111222 
DISL,ioos:station:DISL:KATA:1,2019-09-08T07:57:00Z,30.2583,-88.2131,79.31,11111222 
DISL,ioos:station:DISL:KATA:1,2019-09-08T08:57:00Z,30.2583,-88.2131,81.5,11111222 
DISL,ioos:station:DISL:KATA:1,2019-09-08T09:57:00Z,30.2583,-88.2131,81.6,11111222 
DISL,ioos:station:DISL:KATA:1,2019-09-08T10:57:00Z,30.2583,-88.2131,70.46,11111222 
DISL,ioos:station:DISL:KATA:1,2019-09-08T11:57:00Z,30.2583,-88.2131,67.48,11111222 
DISL,ioos:station:DISL:KATA:1,2019-09-08T12:57:00Z,30.2583,-88.2131,70.66,11111222 
DISL,ioos:station:DISL:KATA:1,2019-09-08T13:57:00Z,30.2583,-88.2131,69.76,11111222 
DISL,ioos:station:DISL:KATA:1,2019-09-08T14:57:00Z,30.2583,-88.2131,64.58,11111222 
DISL,ioos:station:DISL:KATA:1,2019-09-08T15:57:00Z,30.2583,-88.2131,63.76,11111222 
DISL,ioos:station:DISL:KATA:1,2019-09-08T16:57:00Z,30.2583,-88.2131,63.73,11111222 
DISL,ioos:station:DISL:KATA:1,2019-09-08T17:57:00Z,30.2583,-88.2131,53.39,11111222 
DISL,ioos:station:DISL:KATA:1,2019-09-08T18:56:00Z,30.2583,-88.2131,49.05,11111222 
DISL,ioos:station:DISL:KATA:1,2019-09-08T19:56:00Z,30.2583,-88.2131,60.47,11111222 
DISL,ioos:station:DISL:KATA:1,2019-09-08T20:56:00Z,30.2583,-88.2131,67.08,11111222 
DISL,ioos:station:DISL:KATA:1,2019-09-08T21:56:00Z,30.2583,-88.2131,68.27,11111222 
DISL,ioos:station:DISL:KATA:1,2019-09-08T22:56:00Z,30.2583,-88.2131,68.41,11111222 
DISL,ioos:station:DISL:KATA:1,2019-09-08T23:56:00Z,30.2583,-88.2131,67.36,11111222 
DISL,ioos:station:DISL:KATA:1,2019-09-09T00:56:00Z,30.2583,-88.2131,66.75,11111222 
DISL,ioos:station:DISL:KATA:1,2019-09-09T01:56:00Z,30.2583,-88.2131,66.01,11111222 
DISL,ioos:station:DISL:KATA:1,2019-09-09T02:56:00Z,30.2583,-88.2131,65.47,11111222 
DISL,ioos:station:DISL:KATA:1,2019-09-09T03:56:00Z,30.2583,-88.2131,66.93,11111222 
DISL,ioos:station:DISL:KATA:1,2019-09-09T04:56:00Z,30.2583,-88.2131,68.21,11111222 
DISL,ioos:station:DISL:KATA:1,2019-09-09T05:56:00Z,30.2583,-88.2131,67.27,11111222 
DISL,ioos:station:DISL:KATA:1,2019-09-09T06:56:00Z,30.2583,-88.2131,66.59,11111222 
DISL,ioos:station:DISL:KATA:1,2019-09-09T07:56:00Z,30.2583,-88.2131,71.85,11111222 
DISL,ioos:station:DISL:KATA:1,2019-09-09T08:56:00Z,30.2583,-88.2131,72.36,11111222 
DISL,ioos:station:DISL:KATA:1,2019-09-09T09:56:00Z,30.2583,-88.2131,71.85,11111222 
DISL,ioos:station:DISL:KATA:1,2019-09-09T10:56:00Z,30.2583,-88.2131,71.17,11111222 
DISL,ioos:station:DISL:KATA:1,2019-09-09T11:56:00Z,30.2583,-88.2131,70.6,11111222 
DISL,ioos:station:DISL:KATA:1,2019-09-09T12:56:00Z,30.2583,-88.2131,71.3,11111222 
DISL,ioos:station:DISL:KATA:1,2019-09-09T13:56:00Z,30.2583,-88.2131,67.83,11111222 
DISL,ioos:station:DISL:KATA:1,2019-09-09T14:56:00Z,30.2583,-88.2131,66.51,11111222 
DISL,ioos:station:DISL:KATA:1,2019-09-09T15:56:00Z,30.2583,-88.2131,63.66,11111222 
DISL,ioos:station:DISL:KATA:1,2019-09-09T16:56:00Z,30.2583,-88.2131,59.97,11111222 
DISL,ioos:station:DISL:KATA:1,2019-09-09T17:56:00Z,30.2583,-88.2131,61.9,11111222 
DISL,ioos:station:DISL:KATA:1,2019-09-09T18:56:00Z,30.2583,-88.2131,62.07,11111222 
DISL,ioos:station:DISL:KATA:1,2019-09-09T22:56:00Z,30.2583,-88.2131,51.49,11111222 
DISL,ioos:station:DISL:KATA:1,2019-09-09T23:56:00Z,30.2583,-88.2131,55.84,11111222 
DISL,ioos:station:DISL:KATA:1,2019-09-10T00:56:00Z,30.2583,-88.2131,54.63,11111222 
DISL,ioos:station:DISL:KATA:1,2019-09-10T01:56:00Z,30.2583,-88.2131,53.68,11111222 
DISL,ioos:station:DISL:KATA:1,2019-09-10T02:56:00Z,30.2583,-88.2131,54.43,11111222 
DISL,ioos:station:DISL:KATA:1,2019-09-10T03:56:00Z,30.2583,-88.2131,54.49,11111222 
DISL,ioos:station:DISL:KATA:1,2019-09-10T04:56:00Z,30.2583,-88.2131,53.81,11111222 
DISL,ioos:station:DISL:KATA:1,2019-09-10T05:56:00Z,30.2583,-88.2131,53.92,11111222 
DISL,ioos:station:DISL:KATA:1,2019-09-10T06:56:00Z,30.2583,-88.2131,53.1,11111222 
DISL,ioos:station:DISL:KATA:1,2019-09-10T07:56:00Z,30.2583,-88.2131,53.88,11111222 
DISL,ioos:station:DISL:KATA:1,2019-09-10T08:56:00Z,30.2583,-88.2131,56.22,11111222 
DISL,ioos:station:DISL:KATA:1,2019-09-10T09:56:00Z,30.2583,-88.2131,57.65,11111222 
DISL,ioos:station:DISL:KATA:1,2019-09-10T10:56:00Z,30.2583,-88.2131,59.17,11111222 
DISL,ioos:station:DISL:KATA:1,2019-09-10T11:56:00Z,30.2583,-88.2131,64.36,11111222 
DISL,ioos:station:DISL:KATA:1,2019-09-10T12:56:00Z,30.2583,-88.2131,57.14,11111222 
DISL,ioos:station:DISL:KATA:1,2019-09-10T13:56:00Z,30.2583,-88.2131,59.1,11111222 
DISL,ioos:station:DISL:KATA:1,2019-09-10T14:56:00Z,30.2583,-88.2131,54.58,11111222 
DISL,ioos:station:DISL:KATA:1,2019-09-10T15:56:00Z,30.2583,-88.2131,54.34,11111222 
DISL,ioos:station:DISL:KATA:1,2019-09-10T16:56:00Z,30.2583,-88.2131,60.31,11111222 
DISL,ioos:station:DISL:KATA:1,2019-09-10T17:56:00Z,30.2583,-88.2131,57.19,11111222 
DISL,ioos:station:DISL:KATA:1,2019-09-10T18:56:00Z,30.2583,-88.2131,57.49,11111222 
DISL,ioos:station:DISL:KATA:1,2019-09-10T19:56:00Z,30.2583,-88.2131,57.36,11111222 
DISL,ioos:station:DISL:KATA:1,2019-09-10T20:56:00Z,30.2583,-88.2131,52.14,11111222 
DISL,ioos:station:DISL:KATA:1,2019-09-10T21:56:00Z,30.2583,-88.2131,55.8,11111222 
DISL,ioos:station:DISL:KATA:1,2019-09-10T22:56:00Z,30.2583,-88.2131,57.53,11111222 
DISL,ioos:station:DISL:KATA:1,2019-09-10T23:56:00Z,30.2583,-88.2131,57.15,11111222 
DISL,ioos:station:DISL:KATA:1,2019-09-11T00:56:00Z,30.2583,-88.2131,59.44,11111222 
DISL,ioos:station:DISL:KATA:1,2019-09-11T01:56:00Z,30.2583,-88.2131,60.83,11111222 
DISL,ioos:station:DISL:KATA:1,2019-09-11T02:56:00Z,30.2583,-88.2131,58.7,11111222 
DISL,ioos:station:DISL:KATA:1,2019-09-11T03:56:00Z,30.2583,-88.2131,61.41,11111222 
DISL,ioos:station:DISL:KATA:1,2019-09-11T04:56:00Z,30.2583,-88.2131,65.28,11111222 
DISL,ioos:station:DISL:KATA:1,2019-09-11T05:56:00Z,30.2583,-88.2131,64.77,11111222 
DISL,ioos:station:DISL:KATA:1,2019-09-11T06:56:00Z,30.2583,-88.2131,67.89,11111222 
DISL,ioos:station:DISL:KATA:1,2019-09-11T07:56:00Z,30.2583,-88.2131,69.14,11111222 
DISL,ioos:station:DISL:KATA:1,2019-09-11T08:56:00Z,30.2583,-88.2131,71.48,11111222 
DISL,ioos:station:DISL:KATA:1,2019-09-11T09:56:00Z,30.2583,-88.2131,71.65,11111222 
DISL,ioos:station:DISL:KATA:1,2019-09-11T10:56:00Z,30.2583,-88.2131,74.19,11111222 
DISL,ioos:station:DISL:KATA:1,2019-09-11T11:56:00Z,30.2583,-88.2131,74.64,11111222 
DISL,ioos:station:DISL:KATA:1,2019-09-11T12:56:00Z,30.2583,-88.2131,74.64,11111222 
DISL,ioos:station:DISL:KATA:1,2019-09-11T13:56:00Z,30.2583,-88.2131,79.18,11111222 
DISL,ioos:station:DISL:KATA:1,2019-09-11T14:56:00Z,30.2583,-88.2131,78.46,11111222 
DISL,ioos:station:DISL:KATA:1,2019-09-11T15:56:00Z,30.2583,-88.2131,63.05,11111222 
DISL,ioos:station:DISL:KATA:1,2019-09-11T16:56:00Z,30.2583,-88.2131,63.36,11111222 
DISL,ioos:station:DISL:KATA:1,2019-09-11T17:56:00Z,30.2583,-88.2131,63.36,11111222 
DISL,ioos:station:DISL:KATA:1,2019-09-11T18:56:00Z,30.2583,-88.2131,63.36,11111222 
DISL,ioos:station:DISL:KATA:1,2019-09-11T19:56:00Z,30.2583,-88.2131,62.14,11111222 
DISL,ioos:station:DISL:KATA:1,2019-09-11T20:56:00Z,30.2583,-88.2131,63.29,11111222 
DISL,ioos:station:DISL:KATA:1,2019-09-11T21:56:00Z,30.2583,-88.2131,62.31,11111222 
DISL,ioos:station:DISL:KATA:1,2019-09-11T22:56:00Z,30.2583,-88.2131,56.2,11111222 
DISL,ioos:station:DISL:KATA:1,2019-09-11T23:56:00Z,30.2583,-88.2131,53.06,11111222 
DISL,ioos:station:DISL:KATA:1,2019-09-12T00:56:00Z,30.2583,-88.2131,53.24,11111222 
DISL,ioos:station:DISL:KATA:1,2019-09-12T01:56:00Z,30.2583,-88.2131,50.29,11111222 
DISL,ioos:station:DISL:KATA:1,2019-09-12T02:56:00Z,30.2583,-88.2131,48.86,11111222 
DISL,ioos:station:DISL:KATA:1,2019-09-12T03:56:00Z,30.2583,-88.2131,51.71,11111222 
DISL,ioos:station:DISL:KATA:1,2019-09-12T04:56:00Z,30.2583,-88.2131,53.65,11111222 
DISL,ioos:station:DISL:KATA:1,2019-09-12T05:56:00Z,30.2583,-88.2131,53.61,11111222 
DISL,ioos:station:DISL:KATA:1,2019-09-12T06:56:00Z,30.2583,-88.2131,65.79,11111222 
DISL,ioos:station:DISL:KATA:1,2019-09-12T07:56:00Z,30.2583,-88.2131,64.23,11111222 
DISL,ioos:station:DISL:KATA:1,2019-09-12T08:56:00Z,30.2583,-88.2131,61.61,11111222 
DISL,ioos:station:DISL:KATA:1,2019-09-12T09:56:00Z,30.2583,-88.2131,62.6,11111222 
DISL,ioos:station:DISL:KATA:1,2019-09-12T10:56:00Z,30.2583,-88.2131,67.14,11111222 
DISL,ioos:station:DISL:KATA:1,2019-09-12T11:56:00Z,30.2583,-88.2131,71.24,11111222 
DISL,ioos:station:DISL:KATA:1,2019-09-12T12:56:00Z,30.2583,-88.2131,65.79,11111222 
DISL,ioos:station:DISL:KATA:1,2019-09-12T13:56:00Z,30.2583,-88.2131,66.56,11111222 
DISL,ioos:station:DISL:KATA:1,2019-09-12T14:56:00Z,30.2583,-88.2131,56.96,11111222 
DISL,ioos:station:DISL:KATA:1,2019-09-12T15:56:00Z,30.2583,-88.2131,56.95,11111222 
DISL,ioos:station:DISL:KATA:1,2019-09-13T19:56:00Z,30.2583,-88.2131,55.8,11111222 
DISL,ioos:station:DISL:KATA:1,2019-09-13T20:56:00Z,30.2583,-88.2131,55.12,11111222 
DISL,ioos:station:DISL:KATA:1,2019-09-13T21:56:00Z,30.2583,-88.2131,51.42,11111222 
DISL,ioos:station:DISL:KATA:1,2019-09-13T22:56:00Z,30.2583,-88.2131,51.69,11111222 
DISL,ioos:station:DISL:KATA:1,2019-09-13T23:56:00Z,30.2583,-88.2131,46.99,11111222 
DISL,ioos:station:DISL:KATA:1,2019-09-14T00:56:00Z,30.2583,-88.2131,45.1,11111222 
DISL,ioos:station:DISL:KATA:1,2019-09-14T01:56:00Z,30.2583,-88.2131,44.29,11111222 
DISL,ioos:station:DISL:KATA:1,2019-09-14T02:56:00Z,30.2583,-88.2131,47.95,11111222 
DISL,ioos:station:DISL:KATA:1,2019-09-14T03:56:00Z,30.2583,-88.2131,48.19,11111222 
DISL,ioos:station:DISL:KATA:1,2019-09-14T04:56:00Z,30.2583,-88.2131,51.48,11111222 
DISL,ioos:station:DISL:KATA:1,2019-09-14T05:56:00Z,30.2583,-88.2131,51.0,11111222 
DISL,ioos:station:DISL:KATA:1,2019-09-14T06:56:00Z,30.2583,-88.2131,55.54,11111222 